CUBESAT XI-IV (CO-57)

Last updated on Mon Dec 15 2025 00:03:16 GMT+0000 (Coordinated Universal Time)

1 27848U 03031J 25347.96224071 .00000433 00000+0 20957-3 0 9993 2 27848 98.6792 353.7104 0009935 27.4415 332.7286 14.23488271165029
UTC large
Height (km)
Speed (km/s)
/
Latitude / Longitude
Inclination (degrees)
Orbital Period (minutes)
Azimuth
Elevation
Range (km)
Doppler Factor

Next 0 passes for location: London (51.5072 / 0.1276)

Sorry there are no passes over London.